Regional Weather Roundup
Issued by NWS Portland, ME

Current Version | Previous Version | Text Only | Print | Product List | Glossary Off
Versions: 1 2 3 4 5 6 7 8 9 10 11 12 13 14 15 16 17 18 19 20 21 22 23 24 25 26 27 28 29 30 31 32 33 34 35 36 37 38 39 40 41 42 43 44 45 46 47 48 49 50
787 ASUS41 KGYX 170410 RWRGYX WEATHER ROUNDUP FOR MAINE AND NEW HAMPSHIRE NATIONAL WEATHER SERVICE GRAY ME 1200 AM EDT WED OCT 17 2018 MEZ002-005-006-010-012-015-018-020-021-024-026-027-029-170500- MAINE CITY SKY/WX TMP DP RH WIND PRES REMARKS PORTLAND FAIR 42 34 73 SW6 29.97F SANFORD FAIR 32 30 92 CALM 29.99S BAR HARBOR FAIR 40 28 62 SW5 29.96R WISCASSET FAIR 34 33 96 CALM 29.98S ROCKLAND FAIR 33 32 96 CALM 29.97R FRYEBURG FAIR 31 30 96 SW5 29.95F LEWISTONAUBURN FAIR 31 29 92 CALM 29.96S AUGUSTA FAIR 38 30 73 S3 29.95S WATERVILLE FAIR 34 31 88 CALM 29.92S BANGOR FAIR 38 29 70 SW3 29.94S GREENVILLE N/A 35 28 75 CALM 29.85F MILLINOCKET FAIR 34 28 79 E3 29.90F HOULTON FAIR 30 28 92 SW5 29.86F PRESQUE ISLE FAIR 35 25 66 SW7 29.85S FRENCHVILLE MOCLDY 35 24 64 W5 29.79S CARIBOU FAIR 33 25 72 SW5 29.82S $$ NHZ002-005-008-009-011-012-014-170500- NEW HAMPSHIRE CITY SKY/WX TMP DP RH WIND PRES REMARKS PORTSMOUTH MOCLDY 42 33 72 S5 29.98S ROCHESTER FAIR 41 34 76 CALM 29.98S NASHUA FAIR 39 37 92 CALM 30.00F MANCHESTER MOCLDY 42 35 76 S3 29.98S CONCORD FAIR 33 31 92 CALM 29.99S LACONIA FAIR 43 32 65 SW7 29.96F PLYMOUTH FAIR 30 29 96 CALM 29.97S BERLIN FAIR 27 26 96 CALM 29.92S WHITEFIELD FAIR 29 26 89 CALM 29.93S JAFFREY FAIR 34 34 100 CALM 29.99S KEENE FAIR 35 34 96 CALM 29.99F LEBANON FAIR 39 30 70 S12 29.95F MT WASHINGTON FOG 21 21 100 W44 N/A VSB 0 WCI 0 $$ VTZ005-007-008-170500- VERMONT CITY SKY/WX TMP DP RH WIND PRES REMARKS ST JOHNSBURY N/A 32 31 96 MISG 29.93S MONTPELIER FAIR 42 30 62 S7 29.95F BURLINGTON CLOUDY 45 32 60 S10 29.92F $$ MAZ007-012-024-CTZ003-RIZ002-NYZ038-NYZ072-170500- SOUTHERN NEW ENGLAND AND NY CITY SKY/WX TMP DP RH WIND PRES REMARKS BOSTON FAIR 49 36 61 SW9 30.01S WORCESTER FAIR 41 34 76 W9 29.99F NANTUCKET FAIR 51 41 68 W7 30.03F PROVIDENCE MOCLDY 43 38 82 CALM 30.03F HARTFORD MOCLDY 44 36 73 SW3 30.02S ALBANY FAIR 42 34 73 S6 30.01S NEW YORK CITY MOCLDY 54 35 48 W12 30.05F $$ ANZ081-ANZ082-ANZ150-NHZ014-MEZ023>029-170500- COASTAL MARINE OBSERVATIONS STATION/POSITION TIME TEMP WIND PRES WAVE AIR SEA DIR/SP/G HT/PER (UTC) (F) (DEG/KT/KT) (MB) (FT/S) MOUNT DESERT ROC 0400 48 310/ 4/ 5 1014.8R MATINICUS ROCK 0300 48 330/ 5/ 7 1014.6R ISLE OF SHOALS 0300 50 260/ 14/ 15 1015.0S JEFFREYS LEDGE 0306 57 N/A 4/ 5 $$ .............KEY.............. WCI - WIND CHILL TC - TEMPERATURE IN CELSIUS VSB - VISIBILITY IN MILES HX - HEAT INDEX FAIR- INDICATES FEW OR NO CLOUDS BELOW 12,000 FT, WITH NO SIGNIFICANT WEATHER AND/OR OBSTRUCTIONS TO VISIBILITY.

USA.gov is the U.S. government's official web portal to all federal, state and local government web resources and services.